斑竹:听风岁月
 标题 作者 点击 回复 回复时间
荣威RX5加装12寸道客视竖屏导航 我不要赘wrench 62 0 09-19 16:25
第一辆车让我觉得选择i6没错 南柯pant5 45 0 09-15 19:43
还在因为荣威ERX5的续航里程担忧吗? reconcil可爱小 45 0 09-14 14:49
荣威ERX5解决你的后顾之忧 deviatio心理咨 40 0 09-14 14:49
无论从什么角度欣赏我的i6都是那么的美! fake美好未来何 43 0 09-07 13:16
早买早享受,我买的i6可以提车了! 暗夜深狱暗夜深5 35 0 09-07 13:08
颜值控的代表——荣威i6 身体太绕卓00 44 0 09-07 13:01
我家的白色荣威i6,真是低调而奢华 墨小调贡_wring 50 0 09-07 12:50
试驾荣威i6,简单说下试驾感受 黄爱飞厍66 38 0 09-07 12:46
如果你以为i6只是漂亮又省油,那么你会失去很多乐趣 殇夏无伤11 28 0 09-07 12:42
荣威i6,你买车不得不看的品牌! forersrs 28 0 09-07 12:34
功能强大又省油的i6,内饰细节也非常用心 把酒封杯云nut 15 0 09-07 12:30
新到家的荣威i6拉出来晒晒 揮霍小advertis 14 0 09-06 17:11
小六子我的第二辆车已经到手,出来交下提车作业 小混侠瞿88 15 0 09-06 17:04
我的提车记——荣威i6 般若风情climax 17 0 09-06 16:51
让你无法拒绝的荣威i6 resultan龙魂桂 13 0 09-06 16:35
你的高颜值决定了我对你的重新认识荣威i6 uncertaigege 7 0 09-06 16:30
居家实用型家轿——荣威i6 integritmlml 17 0 09-06 16:23
初次见面,我来谈一谈提车i6的感受 integrat一无所 14 0 09-06 15:36
骚红来袭!荣威i6提车记! 竹园是我77 23 0 09-05 14:19
荣威i6,终于到手了! nickname做那最 17 0 09-05 14:14
买了荣威i6,啥时候给上牌呢? 请有爱_inlet 15 0 09-05 14:10
和大家说说我用荣威i6的感受吧! discours虾嬷嬷 18 0 09-05 14:06
刚刚提车回来,忍不住秀一波 garlic半个世纪 13 0 09-05 14:01
成功提车荣威i6,分享一下我此刻的心情 高山仰_confiden 16 0 09-05 13:27
颜值控选它准没错 bugle阿迪安娜麻 7 0 09-04 16:12
慎重的选择永远是没错的 小店铺_flavour 16 0 09-04 16:08
荣威i6用车两个月有感 蚊蚊倪_tensile 15 0 09-04 16:05
荣威i6性价比是不是真有那么好? marshal柠檬淡茶 29 0 09-04 16:01
超低油耗的一款“神器”,你值得拥有 张馨艺_prevalen 10 0 09-04 15:58
爱车第一次保养 disregar面具小 8 0 09-04 15:43
i6作为荣威系列评价比较好的一款车,你怎么看呢? domestic灭楼组 17 0 09-04 15:40
混动版荣威eRX5,让你的旅途更美好 我是恋晨韦22 36 0 09-03 12:20
用过了你才会知道好不好? 笑而不语_scorch 13 0 09-03 12:08
试驾君告诉你:荣威ERX5有多帅 evaporat我们好 28 0 09-03 12:01
碾压北汽EU260,荣威ERX5有几分胜算? datumbbbb 17 0 09-03 11:58
新车异味问题,有朋友可以支个招吗? correlat未完待 8 0 09-03 11:43
话不多说,直接说一说荣威i6用车感受 marginaleses 22 0 09-03 11:27
国产车里,我觉得它还是不错的。 champion歌手潘 21 0 09-03 11:23
燃油车与新能源车,哪款车更受欢迎 小甘曾tyrant 9 0 09-03 11:20
没有对比就没有伤害,别人家的荣威ei6怎么这么好 宁籽燕88 22 0 09-03 11:17
要不要和我在成都的街头走一走,尝遍大街小巷的美食! unanimouxcxc 12 0 09-01 09:38
车展见荣威,造型低调但风头不少 美林住户束66 18 2 08-31 18:11
车展见i6,有点小惊喜~ 村落农instabil 17 2 08-31 18:10
轰轰烈烈的成都车展正在火热举行 uproar我是土豆 5 0 08-30 21:15
成都车展如约而至 跳水猫景motel 5 0 08-30 21:15
2017成都国际汽车展览会拉开帷幕 小光米00 6 0 08-30 20:45
成都车展拉开帷幕,期待期待 木头娃娃柳77 5 0 08-30 19:55
成都车展拉开帷幕,对新车我颇感兴趣 爬底55rj5 6 0 08-30 19:52
成都车展上竟然还有cosplay 厉害了!! 狠狠地_complica 12 0 08-30 16:54
成都车展的走起,看豪车美女挑自己喜欢车型 formulat须佐之 18 2 08-30 16:19
人头攒动的成都车展啊! subscrip小佐 12 2 08-30 10:07
选车有段时间了,现在终于有了明确目标 最后一页77 10 2 08-30 10:06
一年一度的成都车展拉开了帷幕 辣椒殳_regulate 5 0 08-30 08:55
成都车展里面一些升级和改款车型也颇有看点 kineticshsh 4 0 08-30 08:22
朋友跳票,一人看展收获颇丰! consulxixi 6 0 08-29 20:22
来车展的目的只有一个,探访我心中的混动车 deposit红莲人形 6 0 08-29 19:30
居家代步小能手——荣威360用车作业 end土狗刀刀陆 17 0 08-29 18:07
荣威RX5 把最爱的大白开回家 uncertaigege 72 1 08-29 16:05
成都车展可算是看爽了,美滋滋啊!!! 想忘记应33 18 2 08-29 14:35
【成都车展】靓车美女汇集地 潇湘枫雨inertia 16 2 08-29 14:34
成都车展上“车星”“明星”齐聚 讯合优车fighter 25 2 08-28 23:14
成都车展真的是人山人海啊! 东方思reckless 27 2 08-28 23:14
成都国际车展正在如火如荼的进行中 energeti浩然山 3 0 08-28 21:58
成都车展荣威又给我们展示了什么新花样 quarterl一爱一 6 0 08-28 20:59
成都车展规模也算大啊! 谢谢你的_tease 9 0 08-28 20:49
成都车展荣威车系集聚一堂,话说总有一个适合你 awakeqtqt 16 2 08-27 16:36
在成都,怎么能不关注这次的成都车展 焦点访谈邵33 9 2 08-27 16:28
成都车展精彩看点,我给你们分享 一撸向北撸55 20 2 08-27 16:28
豪车美女,让你挪不开眼睛! 幻海雨夜衡66 18 2 08-26 22:11
美女如云,成都车展进行中 deviatio心理咨 24 2 08-26 22:11
又来车展了,听说还是规模最大的一次,个人看好改款950 燃瞿33 18 2 08-26 22:10
按耐不住提车的喜悦,说说我的小e migrate船过水无 13 0 08-26 17:40
寻找36D小姐姐,成都车展福利走一遭~ reconcil可爱小 40 0 08-26 16:48
成都车展,带你撩豪车看美女 西楼月如勾尤11 27 2 08-26 14:39
成都车展了,小伙伴们有去围观的没? 暗夜深狱暗夜深5 15 2 08-26 14:38
跟着我走,成都车展看个够 梦花飘雪77 19 2 08-26 14:36
除了新款950还有成都美食 远东二中怀33 13 2 08-26 14:34
i6的用车小感,油耗我还算满意 身体太绕卓00 14 0 08-24 20:41
全是缘分,喜提爱车 fake美好未来何 26 0 08-23 12:02